{"data":{"norad_id":62424,"intl_designator":"2024-249R","name":"STARLINK-32638","alt_names":[],"object_type":"PAYLOAD","status":"ACTIVE","operator":null,"country":"US","launch_date":"2024-12-23","launch_site_code":"AFETR","launch_vehicle":null,"mission":null,"orbit_class":"UNKNOWN","rcs_meters":null,"size_class":null,"mass_kg":null,"dimensions":null,"purposes":["comms"],"wikipedia_slug":null,"has_3d_model":false,"image_url":null,"decayed_at":null,"tle_current":{"epoch":"2026-05-25T00:34:17.465664Z","epoch_age_seconds":73008,"freshness":"FRESH","line1":"1 62424U 24249R   26145.02381326  .00017853  00000+0  65678-3 0  9990","line2":"2 62424  43.0020 254.6101 0002412 297.0474  63.0131 15.27574778 79351","mean_motion":15.27574778,"eccentricity":0.0002412,"inclination_deg":43.002,"raan_deg":254.6101,"arg_perigee_deg":297.0474,"mean_anomaly_deg":63.0131,"bstar":0.00065678,"rev_number":7935,"period_min":94.267070963645,"perigee_km":481.40981077289,"apogee_km":484.71965448871,"semimajor_km":6861.2017326308,"source":"CELESTRAK","updated_at":"2026-05-25T13:38:19.655253Z"}}}